Regional Weather Roundup
Issued by NWS Charleston, SC

Current Version | Previous Version | Text Only | Print | Product List | Glossary Off
Versions: 1 2 3 4 5 6 7 8 9 10 11 12 13 14 15 16 17 18 19 20 21 22 23 24 25 26 27 28 29 30 31 32 33 34 35 36 37 38 39 40 41 42 43 44 45 46 47 48 49 50

000
ASUS42 KCHS 261412
RWRCHS

REGIONAL WEATHER ROUNDUP
NATIONAL WEATHER SERVICE CHARLESTON SC
1000 AM EDT TUE SEP 26 2017

NOTE: "FAIR" INDICATES FEW OR NO CLOUDS BELOW 12,000 FEET WITH NO
SIGNIFICANT WEATHER AND/OR OBSTRUCTIONS TO VISIBILITY.

NOT ALL STATIONS ARE QUALITY CONTROLLED. USE DATA WITH CAUTION...
ESPECIALLY DEWPOINT OBSERVATIONS.

SCZ027-030-031-034>040-042>050-261500-
...SOUTHEAST SOUTH CAROLINA...

CITY           SKY/WX    TMP DP  RH WIND       PRES   REMARKS
N CHARLESTON   MOSUNNY   79  71  76 N10       29.89S
WATERFRONT PRK   N/A     77  71  82 N8G15     29.73S
JOHNS ISLAND   FAIR      81  72  74 NW12      29.89S
PINOPOLIS        N/A     73  70  88 N8        29.83S
MONCKS CORNER  FAIR      75  70  83 N6        29.90S
SUMMERVILLE    FAIR      77  70  78 N6        29.92S
BEAUFORT MCAS  MOSUNNY   79  70  74 NW9       29.92S
BEAUFORT ARPT  FAIR      77  68  73 NW7       29.91S HAZE
HILTON HEAD IS SUNNY     79  70  73 NW12      29.92S
WALTERBORO     SUNNY     77  68  73 N5        29.93S
ALLENDALE      NOT AVBL

...SOUTHERN MIDLANDS AND PEE DEE...

CITY           SKY/WX    TMP DP  RH WIND       PRES   REMARKS
GEORGETOWN     CLOUDY    72  72 100 NW6       29.90R
KINGSTREE      PTSUNNY   73  70  88 NW7       29.91S
ORANGEBURG     SUNNY     78  66  66 N7        29.93S
BARNWELL       FAIR      79  68  69 N8        29.95S
AIKEN          FAIR      75  64  69 N13       30.00S
MANNING        FAIR      75  66  73 MISG      29.92R
COLUMBIA       MOSUNNY   78  65  63 VRB5      29.94S
SUMTER         MOSUNNY   76  66  70 N8        29.90F
FLORENCE       CLOUDY    73  69  87 N9        29.92R
MYRTLE BEACH   CLOUDY    75  70  84 N15       29.88S
N MYRTLE BEACH CLOUDY    76  71  85 N9        29.86R

$$

GAZ063-065-086>088-099>101-113>116-118-119-134>141-150-261500-
...SOUTHEAST GEORGIA...

CITY           SKY/WX    TMP DP  RH WIND       PRES   REMARKS
SAVANNAH ARPT  MOSUNNY   80  69  69 N10       29.94R
HUNTER AAF     SUNNY     80  69  69 N10       29.91R
FORT STEWART   SUNNY     79  68  67 N6        29.92R
STATESBORO     SUNNY     78  66  64 N7        29.95S
SYLVANIA       SUNNY     79  71  77 N9        29.96R
CLAXTON        FAIR      80  70  72 W5        29.95S

...CSRA...CENTRAL AND FAR SOUTHEAST GEORGIA...

CITY           SKY/WX    TMP DP  RH WIND       PRES   REMARKS
THOMSON        SUNNY     75  66  75 NE3       30.04S
AUGUSTA-BUSH   SUNNY     75  66  73 NW5       29.96S
AUGUSTA-DANIEL SUNNY     78  66  66 N8        29.98R
SWAINSBORO     FAIR      77  70  78 N3        29.98S
VIDALIA        SUNNY     81  70  69 N5        29.97R
EASTMAN        FAIR      76  61  58 CALM      30.00R
HAZLEHURST     FAIR      78  61  54 N5        29.96R
ALMA           SUNNY     80  68  66 VRB3      29.95S
WAYCROSS       SUNNY     78  67  68 CALM      29.96R
JESUP          NOT AVBL
BAXLEY         FAIR      77  68  73 N5        29.96R
BRUNSWICK      SUNNY     77  68  73 NW5       29.95R
SAINT SIMONS   SUNNY     78  70  76 N8        29.94R

$$

SCZ027-028-034-036>038-045-046-048>050-GAZ119-141-261500-
...LAKE AND SUPPLEMENTAL COASTAL OBSERVATIONS...

STATION/POSITION TIME  TEMP    WIND        PRES    WAVE   SWELL
                       AIR SEA DIR/SP/G            HT/PER HT/PER/DIR
                 (UTC) (F)     (DEG/KT/KT) (MB)    (FT/S) (FT/S/D)
WINYAH BAY       NOT AVBL
LAKE MURRAY      1320   73     350/  3/  7 1013.5
ACE BASIN NERRS  1245   73     330/  3     1013.0
FORT PULASKI     1348   76 81  360/  7/ 11 1013.6S
SAPELO ISLAND    1300   74        CALM     1013.0

$$

ANZ835-935-AMZ111-154-330-350-352-354-370-450-454-472-261500-
...C-MAN AND BUOY OBSERVATIONS...

STATION/POSITION TIME  TEMP    WIND        PRES    WAVE   SWELL
                       AIR SEA DIR/SP/G            HT/PER HT/PER/DIR
                 (UTC) (F)     (DEG/KT/KT) (MB)    (FT/S) (FT/S/D)
BUOY 41004       1350   75 81  340/ 12/ 16 1010.9R   7/11   5/100/11
BUOY 41008       1350   78 80   10/ 14/ 16 1012.9R   4/13   3/120/13
FOLLY BEACH CMAN 1300   75     330/  8/ 10 1012.4F
CAPERS NEARSHORE 1308   73 80  350/ 14/ 17 1011.4R
FRIPP NEARSHORE  1308   75     350/ 12/ 16 1018.8F


STATION/POSITION TIME  TEMP    WIND        PRES    WAVE   SWELL
                       AIR SEA DIR/SP/G            HT/PER HT/PER/DIR
                 (UTC) (F)     (DEG/KT/KT) (MB)    (FT/S) (FT/S/D)
5E ST. MARYS GA  1400      81                N/A     4/13   2/ 80/13
FRYING PAN BUOY  1350   76 81  340/ 21/ 27 1008.7R  11/12  10/120/12
BUOY 41025       1350   76 80   20/ 31/ 39 1003.3R  17/12  11/120/12
CAPE LOOKOUT NC  1300   77     350/ 25/ 31 1006.9R
BUOY 41002       1350   80 81  290/ 33/ 41  999.6R  16/ 9   2/ 30/14
BUOY 41010       1350          310/ 14/ 16 1012.1R   7/11   7/11
ST AUGUSTINE FL  1400   79 81  330/  5/  8 1014.2R


$$




USA.gov is the U.S. government's official web portal to all federal, state and local government web resources and services.